When you browse on this site, cookies collect data to enhance your experience and personalize the content and advertising you see.
Visit our Privacy Policy to learn more. By continuing to use the site, you agree to this use of cookies and data.

Hourly Weather Borisovka

Today, 4 July, Saturday

Time Temperature Precipitation Wind Pressure Humidity
00:00 +18°C° 0.9 mm 1 mps 737 mmHg 98%
01:00 +18°C° 0.9 mm 1 mps 737 mmHg 98%
02:00 +16°C° 0 mm 0 mps 737 mmHg 98%
03:00 +18°C° 0.9 mm 1 mps 737 mmHg 98%
04:00 +18°C° 0.9 mm 1 mps 737 mmHg 97%
05:00 +18°C° 0.9 mm 1 mps 737 mmHg 96%
06:00 +19°C° 0.2 mm 1 mps 737 mmHg 91%
07:00 +18°C° 0.2 mm 0 mps 737 mmHg 86%
08:00 +19°C° 0.2 mm 0 mps 737 mmHg 81%
09:00 +21°C° 0 mm 0 mps 737 mmHg 71%
10:00 +25°C° 0 mm 1 mps 737 mmHg 62%
11:00 +26°C° 0 mm 1 mps 737 mmHg 52%
12:00 +26°C° 0 mm 1 mps 737 mmHg 51%
13:00 +26°C° 0 mm 1 mps 737 mmHg 50%
14:00 +26°C° 0 mm 2 mps 737 mmHg 49%
15:00 +26°C° 0 mm 2 mps 737 mmHg 50%
16:00 +26°C° 0 mm 2 mps 737 mmHg 52%
17:00 +26°C° 0 mm 2 mps 737 mmHg 54%
18:00 +24°C° 0 mm 2 mps 737 mmHg 62%
19:00 +21°C° 0 mm 2 mps 737 mmHg 70%
20:00 +19°C° 0 mm 2 mps 737 mmHg 78%
21:00 +19°C° 0 mm 1 mps 737 mmHg 80%
22:00 +18°C° 0 mm 1 mps 737 mmHg 83%
23:00 +16°C° 0 mm 1 mps 737 mmHg 85%

Tomorrow, 5 July, Sunday

Time Temperature Precipitation Wind Pressure Humidity
00:00 +15°C° 0 mm 1 mps 737 mmHg 86%
01:00 +15°C° 0 mm 1 mps 737 mmHg 86%
02:00 +13°C° 0 mm 0 mps 738 mmHg 87%
03:00 +14°C° 0 mm 0 mps 737 mmHg 85%
04:00 +16°C° 0 mm 1 mps 737 mmHg 83%
05:00 +16°C° 0 mm 1 mps 737 mmHg 80%
06:00 +19°C° 0 mm 1 mps 737 mmHg 74%
07:00 +20°C° 0 mm 2 mps 737 mmHg 67%
08:00 +23°C° 0 mm 2 mps 737 mmHg 61%
09:00 +24°C° 0 mm 3 mps 737 mmHg 57%
10:00 +25°C° 0 mm 3 mps 737 mmHg 53%
11:00 +26°C° 0 mm 3 mps 737 mmHg 49%
12:00 +26°C° 0 mm 3 mps 736 mmHg 48%
13:00 +27°C° 0 mm 4 mps 736 mmHg 48%
14:00 +27°C° 0 mm 4 mps 736 mmHg 47%
15:00 +27°C° 0 mm 4 mps 735 mmHg 49%
16:00 +26°C° 0 mm 3 mps 735 mmHg 52%
17:00 +26°C° 0 mm 3 mps 735 mmHg 55%
18:00 +24°C° 0.1 mm 3 mps 735 mmHg 64%
19:00 +22°C° 0.1 mm 3 mps 735 mmHg 74%
20:00 +20°C° 0.1 mm 2 mps 735 mmHg 83%
21:00 +19°C° 0 mm 2 mps 735 mmHg 87%
22:00 +18°C° 0 mm 2 mps 735 mmHg 90%
23:00 +17°C° 0 mm 2 mps 735 mmHg 93%

Day after tomorrow, 6 July, Monday

Time Temperature Precipitation Wind Pressure Humidity
00:00 +17°C° 0 mm 3 mps 734 mmHg 94%
01:00 +17°C° 0 mm 3 mps 734 mmHg 96%
02:00 +17°C° 0 mm 3 mps 734 mmHg 97%
03:00 +17°C° 0 mm 3 mps 734 mmHg 96%
04:00 +18°C° 0 mm 3 mps 734 mmHg 94%
05:00 +18°C° 0 mm 3 mps 734 mmHg 93%
06:00 +20°C° 0 mm 3 mps 734 mmHg 86%
07:00 +21°C° 0 mm 4 mps 734 mmHg 79%
08:00 +23°C° 0 mm 4 mps 734 mmHg 71%
09:00 +25°C° 0 mm 4 mps 734 mmHg 68%
10:00 +26°C° 0 mm 4 mps 734 mmHg 65%
11:00 +27°C° 0 mm 5 mps 734 mmHg 61%
12:00 +26°C° 0.4 mm 4 mps 734 mmHg 68%
13:00 +25°C° 0.4 mm 4 mps 734 mmHg 74%
14:00 +25°C° 0.4 mm 4 mps 733 mmHg 80%
15:00 +24°C° 0.5 mm 3 mps 733 mmHg 82%
16:00 +24°C° 0.5 mm 3 mps 733 mmHg 84%
17:00 +24°C° 0.5 mm 3 mps 733 mmHg 86%
18:00 +23°C° 0.1 mm 2 mps 733 mmHg 89%
19:00 +21°C° 0.1 mm 2 mps 733 mmHg 91%
20:00 +20°C° 0.1 mm 2 mps 733 mmHg 94%
21:00 +20°C° 0 mm 2 mps 733 mmHg 95%
22:00 +19°C° 0 mm 2 mps 733 mmHg 96%
23:00 +19°C° 0 mm 2 mps 733 mmHg 97%

7 July, Tuesday

Time Temperature Precipitation Wind Pressure Humidity
00:00 +20°C° 0 mm 1 mps 733 mmHg 98%
01:00 +20°C° 0 mm 1 mps 733 mmHg 98%
02:00 +19°C° 0 mm 1 mps 733 mmHg 98%
03:00 +19°C° 0.5 mm 1 mps 733 mmHg 98%
04:00 +18°C° 0.5 mm 0 mps 733 mmHg 98%
05:00 +18°C° 0.5 mm 0 mps 733 mmHg 98%
06:00 +20°C° 0.7 mm 1 mps 733 mmHg 96%
07:00 +21°C° 0.7 mm 1 mps 733 mmHg 94%
08:00 +22°C° 0.7 mm 1 mps 733 mmHg 92%
09:00 +20°C° 2.9 mm 2 mps 733 mmHg 93%
10:00 +19°C° 2.9 mm 3 mps 733 mmHg 94%
11:00 +19°C° 2.9 mm 3 mps 733 mmHg 96%
12:00 +20°C° 0.1 mm 3 mps 733 mmHg 89%
13:00 +20°C° 0.1 mm 3 mps 733 mmHg 81%
14:00 +21°C° 0.1 mm 2 mps 733 mmHg 74%
15:00 +20°C° 0.1 mm 2 mps 734 mmHg 79%
16:00 +19°C° 0.1 mm 2 mps 734 mmHg 84%
17:00 +19°C° 0.1 mm 1 mps 734 mmHg 89%
18:00 +19°C° 0 mm 1 mps 734 mmHg 89%
19:00 +18°C° 0 mm 1 mps 734 mmHg 89%
20:00 +18°C° 0 mm 1 mps 734 mmHg 89%
21:00 +16°C° 0 mm 1 mps 734 mmHg 89%
22:00 +16°C° 0 mm 1 mps 734 mmHg 88%
23:00 +15°C° 0 mm 1 mps 734 mmHg 87%

8 July, Wednesday

Time Temperature Precipitation Wind Pressure Humidity
00:00 +15°C° 0 mm 1 mps 734 mmHg 86%
01:00 +15°C° 0 mm 1 mps 734 mmHg 85%
02:00 +15°C° 0 mm 2 mps 734 mmHg 84%
03:00 +16°C° 0 mm 2 mps 733 mmHg 83%
04:00 +16°C° 0 mm 3 mps 733 mmHg 83%
05:00 +16°C° 0 mm 3 mps 733 mmHg 82%
06:00 +14°C° 0.8 mm 3 mps 732 mmHg 87%
07:00 +14°C° 0.8 mm 4 mps 732 mmHg 91%
08:00 +13°C° 0.8 mm 4 mps 731 mmHg 96%
09:00 +13°C° 0.3 mm 4 mps 731 mmHg 96%
10:00 +13°C° 0.3 mm 4 mps 731 mmHg 96%
11:00 +13°C° 0.3 mm 4 mps 731 mmHg 96%
12:00 +13°C° 1.8 mm 4 mps 731 mmHg 96%
13:00 +12°C° 1.8 mm 5 mps 731 mmHg 97%
14:00 +12°C° 1.8 mm 5 mps 731 mmHg 97%
15:00 +12°C° 1.5 mm 4 mps 731 mmHg 97%
16:00 +12°C° 1.5 mm 4 mps 732 mmHg 97%
17:00 +12°C° 1.5 mm 3 mps 732 mmHg 97%
18:00 +12°C° 0.2 mm 3 mps 732 mmHg 97%
19:00 +13°C° 0.2 mm 2 mps 732 mmHg 97%
20:00 +13°C° 0.2 mm 2 mps 732 mmHg 98%
21:00 +12°C° 0 mm 2 mps 732 mmHg 97%
22:00 +12°C° 0 mm 2 mps 732 mmHg 97%
23:00 +12°C° 0 mm 2 mps 733 mmHg 97%

9 July, Thursday

Time Temperature Precipitation Wind Pressure Humidity
00:00 +12°C° 0 mm 2 mps 732 mmHg 97%
01:00 +10°C° 0 mm 2 mps 732 mmHg 97%
02:00 +10°C° 0 mm 2 mps 732 mmHg 97%
03:00 +10°C° 0 mm 2 mps 732 mmHg 97%
04:00 +10°C° 0 mm 2 mps 733 mmHg 97%
05:00 +10°C° 0 mm 2 mps 733 mmHg 97%
06:00 +12°C° 0 mm 3 mps 733 mmHg 91%
07:00 +13°C° 0 mm 3 mps 733 mmHg 86%
08:00 +16°C° 0 mm 3 mps 734 mmHg 80%
09:00 +17°C° 0.1 mm 3 mps 734 mmHg 73%
10:00 +18°C° 0.1 mm 4 mps 734 mmHg 67%
11:00 +19°C° 0.1 mm 4 mps 734 mmHg 60%
12:00 +20°C° 0 mm 4 mps 734 mmHg 55%
13:00 +21°C° 0 mm 4 mps 734 mmHg 51%
14:00 +21°C° 0 mm 4 mps 734 mmHg 46%
15:00 +21°C° 0 mm 4 mps 734 mmHg 48%
16:00 +21°C° 0 mm 4 mps 734 mmHg 49%
17:00 +20°C° 0 mm 4 mps 734 mmHg 50%
18:00 +19°C° 0 mm 3 mps 734 mmHg 59%
19:00 +17°C° 0 mm 3 mps 734 mmHg 68%
20:00 +14°C° 0 mm 3 mps 734 mmHg 77%
21:00 +14°C° 0 mm 2 mps 735 mmHg 82%
22:00 +12°C° 0 mm 2 mps 735 mmHg 88%
23:00 +10°C° 0 mm 2 mps 735 mmHg 93%
Show more